Weather in Nikolskoye

Russia / Ivanovo Oblast     56°57′19″N   40°19′35″E
В апреле 2022 года жителям России запретили посещать сайт meteo.paraplan.net по решению Генеральной прокуратуры. Аудитория сайта уменьшилась в 10 раз. Владельцы сайта не видят смысла в поддержке погодного сервера в таких условиях. Сайт будет закрыт в октябре.
temp.,
°C
wind,
m/s
gust,
m/s
humid.,
%
clouds,
%
prec.,
mm/h
press.,
hPa
HPBL,
m
3 october, mon
mon300:00+8ene3690100 0.0 1005157
03:00+9ene51388100 0.0 1003374
06:00+10e41098100 1.6 1002285
09:00+13ese51297100 3.7 1001533
12:00+16ese61482100 0.1 999941
15:00+15se71576100 0.3 10001452
18:00+13sse71580100 0.1 10021359
21:00+9sse6137816 0.3 10061094
4 october, tue
tue400:00+9sse61574100 0.0 10081408
03:00+9se51481100 0.0 1009708
06:00+9se6138244 0.0 10101029
09:00+10sse6147619 0.0 1011972
12:00+13sse714657 0.2 10111696
15:00+14sse714595 0.4 10111844
18:00+12sse71575100 0.2 10121180
21:00+11sse61377100 0.3 10111223
5 october, wed
wed500:00+10s2794100 2.3 1011483
03:00+9s4108597 3.0 1011799
06:00+7sse31090100 0.1 1012525
09:00+8sse3889100 0.2 10121170
12:00+8s3789100 0.4 1012626
15:00+8sw2492100 0.8 1012408
18:00+7sw2494100 0.6 1013263
21:00+7w2689100 0.9 1013317
6 october, thu
thu600:00+6w269588 0.1 1013263
03:00+4w259732 0.1 1014110
06:00+5w259496 0.0 1014174
09:00+6w2591100 0.1 1014300
12:00+10wsw236826 0.0 1014987
15:00+10sw3474100 0.0 1013766
18:00+8ssw3790100 0.0 1013399
21:00+8ssw41096100 0.5 1011466
7 october, fri
fri700:00+9sw41197100 0.0 1011590
03:00+10wnw5119299 0.5 1012813
06:00+9w41185100 0.1 1013761
09:00+10w5118260 0.1 1014915
12:00+10wsw61380100 0.0 1015778
15:00+12w6127234 0.1 10151239
18:00+10w6137715 0.1 10161095
21:00+9w514810 0.1 1018800